FW7055 Weather Reports


time (UTC)temp
C
wind
direction
speed
KPH
gust
KPH
rain 1hr
cm
rain 24hr
cm
rain mn
cm
humidity
%
barometer
mb
20260507105952 10 161 1.6 3.2 0.00 0.00 0.00 88 1022.0
20260507105449 10 143 1.6 3.2 0.00 0.00 0.00 88 1022.0
20260507104946 10 141 1.6 1.6 0.00 0.00 0.00 88 1021.9
20260507104443 10 118 3.2 3.2 0.00 0.00 0.00 88 1022.0
20260507103938 10 128 1.6 1.6 0.00 0.00 0.00 88 1022.0
20260507103436 10 150 3.2 3.2 0.00 0.00 0.00 88 1021.9
20260507102932 10 142 1.6 1.6 0.00 0.00 0.00 88 1021.9
20260507102428 10 151 1.6 3.2 0.00 0.00 0.00 88 1022.2
20260507101925 10 144 1.6 1.6 0.00 0.00 0.00 88 1022.2
20260507101420 10 144 1.6 1.6 0.00 0.00 0.00 88 1022.0
20260507100917 10 150 1.6 3.2 0.00 0.00 0.00 89 1021.9
20260507100415 10 151 1.6 3.2 0.00 0.00 0.00 89 1022.1
20260507095913 10 140 1.6 3.2 0.00 0.00 0.00 89 1022.1
20260507095409 10 138 1.6 1.6 0.00 0.00 0.00 89 1022.1
20260507094907 10 131 3.2 3.2 0.00 0.00 0.00 89 1021.8
20260507094403 10 150 4.8 4.8 0.00 0.00 0.00 90 1022.2
20260507093900 10 140 1.6 3.2 0.00 0.00 0.00 90 1021.8
20260507093358 10 138 3.2 3.2 0.00 0.00 0.00 91 1021.8
20260507092856 10 141 1.6 3.2 0.00 0.00 0.00 91 1022.0
20260507092352 10 131 1.6 3.2 0.00 0.00 0.00 92 1021.9
20260507091848 10 143 1.6 1.6 0.00 0.00 0.00 92 1022.0
20260507091345 10 142 1.6 1.6 0.00 0.00 0.00 93 1021.7
20260507090841 10 156 4.8 4.8 0.00 0.00 0.00 93 1022.0
20260507090337 10 186 1.6 1.6 0.00 0.00 0.00 93 1022.0
20260507085834 10 177 1.6 3.2 0.00 0.00 0.00 93 1021.7
20260507085331 10 164 0.0 1.6 0.00 0.00 0.00 94 1022.0
20260507084828 10 185 8.0 9.7 0.00 0.00 0.00 94 1022.0
20260507084325 10 179 1.6 3.2 0.00 0.00 0.00 94 1021.9
20260507083822 10 179 4.8 4.8 0.00 0.00 0.00 94 1021.8
20260507083318 10 179 1.6 1.6 0.00 0.00 0.00 94 1021.9
20260507082815 10 186 3.2 3.2 0.00 0.00 0.00 95 1022.0
20260507082310 10 184 3.2 3.2 0.00 0.00 0.00 95 1021.8
20260507081808 10 175 1.6 1.6 0.00 0.00 0.00 95 1021.9
20260507081303 10 188 4.8 4.8 0.00 0.00 0.00 96 1021.8
20260507080801 10 217 4.8 4.8 0.00 0.00 0.00 96 1021.9
20260507080257 10 196 4.8 4.8 0.00 0.00 0.00 96 1022.0
20260507075752 10 177 3.2 3.2 0.00 0.00 0.00 96 1022.0
20260507075248 10 161 0.0 0.0 0.00 0.00 0.00 96 1021.8
20260507074745 10 154 1.6 3.2 0.00 0.00 0.00 97 1021.8
20260507074243 10 167 1.6 1.6 0.00 0.00 0.00 97 1022.0
20260507073740 10 189 1.6 3.2 0.00 0.00 0.00 97 1022.0
20260507073236 10 158 3.2 3.2 0.00 0.00 0.00 97 1021.8
20260507072734 10 177 1.6 1.6 0.00 0.00 0.00 96 1022.0
20260507072231 10 184 4.8 4.8 0.00 0.00 0.00 96 1021.7
20260507071728 10 157 1.6 3.2 0.00 0.00 0.00 96 1021.6
20260507071225 10 173 3.2 3.2 0.00 0.00 0.00 96 1021.7
20260507070722 10 173 1.6 1.6 0.00 0.00 0.00 96 1021.6
20260507070219 10 182 1.6 1.6 0.00 0.00 0.00 96 1021.8
20260507065715 10 196 4.8 8.0 0.00 0.00 0.00 96 1021.8
20260507065212 10 237 3.2 3.2 0.00 0.00 0.00 96 1021.8
20260507064709 10 190 3.2 3.2 0.00 0.00 0.00 96 1021.8
20260507064209 10 204 3.2 3.2 0.00 0.00 0.00 96 1021.6
20260507063705 10 164 1.6 1.6 0.00 0.00 0.00 95 1021.8
20260507063201 10 214 3.2 3.2 0.00 0.00 0.00 95 1021.7
20260507062658 11 172 1.6 1.6 0.00 0.00 0.00 95 1021.9
20260507062156 11 234 6.4 8.0 0.00 0.00 0.00 95 1021.7
20260507061654 11 188 3.2 3.2 0.00 0.00 0.00 95 1021.8
20260507061152 11 229 1.6 3.2 0.00 0.00 0.00 95 1021.8
20260507060649 11 236 6.4 8.0 0.00 0.00 0.00 95 1021.8
20260507060146 11 210 3.2 3.2 0.00 0.00 0.00 94 1021.8
20260507055641 11 189 3.2 3.2 0.00 0.00 0.00 94 1021.5
20260507055138 11 232 4.8 4.8 0.00 0.00 0.00 93 1021.7
20260507054634 11 265 6.4 8.0 0.00 0.00 0.00 93 1022.0
20260507054131 11 175 1.6 1.6 0.00 0.00 0.00 93 1021.8
20260507053629 11 243 4.8 9.7 0.00 0.00 0.00 93 1021.9
20260507053127 11 270 4.8 8.0 0.00 0.00 0.00 92 1021.9
20260507052625 11 186 1.6 3.2 0.00 0.00 0.00 91 1021.8
20260507052120 11 276 9.7 11.3 0.00 0.00 0.00 91 1021.9
20260507051618 11 185 1.6 3.2 0.00 0.00 0.00 90 1021.9
20260507051115 11 266 6.4 8.0 0.00 0.00 0.00 89 1021.9
20260507050612 11 261 4.8 4.8 0.00 0.00 0.00 89 1021.8
20260507050108 12 236 4.8 4.8 0.00 0.00 0.00 88 1021.7
20260507045605 12 223 3.2 3.2 0.00 0.00 0.00 88 1021.7
20260507045102 12 277 6.4 8.0 0.00 0.00 0.00 88 1022.0
20260507044559 12 234 3.2 3.2 0.00 0.00 0.00 87 1021.8
20260507044056 12 241 4.8 4.8 0.00 0.00 0.00 87 1021.7
20260507043551 12 175 1.6 3.2 0.00 0.00 0.00 87 1021.8
20260507043049 12 180 1.6 1.6 0.00 0.00 0.00 87 1021.8
20260507042544 12 217 3.2 3.2 0.00 0.00 0.00 87 1021.8
20260507042040 12 221 4.8 4.8 0.00 0.00 0.00 87 1021.8
20260507041537 12 181 1.6 1.6 0.00 0.00 0.00 87 1021.6
20260507041034 12 180 1.6 3.2 0.00 0.00 0.00 86 1022.0
20260507040531 12 232 6.4 9.7 0.00 0.00 0.00 87 1021.8
20260507040027 12 246 4.8 8.0 0.00 0.00 0.00 86 1021.7
20260507035523 12 223 8.0 8.0 0.00 0.00 0.00 86 1021.5
20260507035020 12 190 1.6 1.6 0.00 0.00 0.00 86 1021.7
20260507034517 12 249 6.4 8.0 0.00 0.00 0.00 86 1021.5
20260507034015 12 207 4.8 8.0 0.00 0.00 0.00 86 1021.6
20260507033512 12 245 4.8 8.0 0.00 0.00 0.00 85 1021.5
20260507033009 12 180 1.6 3.2 0.00 0.00 0.00 86 1021.5
20260507032506 12 189 3.2 3.2 0.00 0.00 0.00 85 1021.6
20260507032002 12 238 3.2 3.2 0.00 0.00 0.00 85 1021.3
20260507031458 12 279 4.8 4.8 0.00 0.00 0.00 85 1021.3
20260507030955 12 211 4.8 4.8 0.00 0.00 0.00 85 1021.1
20260507030452 12 228 6.4 9.7 0.00 0.00 0.00 84 1021.1
20260507025950 12 184 1.6 3.2 0.00 0.00 0.00 84 1021.1
20260507025447 12 187 3.2 4.8 0.00 0.00 0.00 84 1021.0
20260507024945 12 271 9.7 12.9 0.00 0.00 0.00 83 1020.9
20260507024442 12 240 8.0 11.3 0.00 0.00 0.00 83 1021.0
20260507023937 12 249 4.8 8.0 0.00 0.00 0.00 84 1021.1
20260507023435 12 210 4.8 4.8 0.00 0.00 0.00 84 1021.2
20260507022932 13 185 3.2 4.8 0.00 0.00 0.00 84 1021.2
20260507022429 13 242 3.2 3.2 0.00 0.00 0.00 83 1021.0
20260507021924 13 248 6.4 9.7 0.00 0.00 0.00 83 1020.9
20260507021420 13 267 6.4 8.0 0.00 0.00 0.00 83 1020.9
20260507020918 13 243 8.0 11.3 0.00 0.00 0.00 82 1020.9
20260507020414 13 162 3.2 4.8 0.00 0.00 0.00 82 1021.2
20260507015911 13 275 6.4 11.3 0.00 0.00 0.00 82 1020.9
20260507015409 13 250 8.0 12.9 0.00 0.00 0.00 82 1021.0
20260507014906 13 233 4.8 8.0 0.00 0.00 0.00 83 1021.1
20260507014402 13 207 6.4 8.0 0.00 0.00 0.00 83 1021.1
20260507013859 13 237 4.8 4.8 0.00 0.00 0.00 82 1021.0
20260507013356 13 250 4.8 4.8 0.00 0.00 0.00 82 1021.0
20260507012853 13 260 8.0 9.7 0.00 0.00 0.00 81 1021.0
20260507012349 13 227 8.0 9.7 0.00 0.00 0.00 82 1020.9
20260507011847 13 221 6.4 8.0 0.00 0.00 0.00 82 1021.0
20260507011344 13 208 6.4 9.7 0.00 0.00 0.00 82 1021.0
20260507010843 13 240 4.8 8.0 0.00 0.00 0.00 82 1020.9
20260507010339 13 220 8.0 9.7 0.00 0.00 0.00 82 1021.0
20260507005837 13 245 4.8 4.8 0.00 0.00 0.00 82 1021.1
20260507005333 13 180 4.8 4.8 0.00 0.00 0.00 82 1021.1
20260507004830 13 251 8.0 9.7 0.00 0.00 0.00 82 1021.3
20260507004327 13 243 4.8 8.0 0.00 0.00 0.00 82 1021.0
20260507003824 13 231 6.4 8.0 0.00 0.00 0.00 81 1021.1
20260507003320 13 268 9.7 9.7 0.00 0.00 0.00 81 1021.0
20260507002815 13 247 9.7 11.3 0.00 0.00 0.00 80 1021.3
20260507002311 14 227 9.7 11.3 0.00 0.00 0.00 80 1021.0
20260507001809 14 237 4.8 4.8 0.00 0.00 0.00 80 1021.1
20260507001306 13 196 3.2 3.2 0.00 0.00 0.00 81 1021.2
20260507000802 13 194 3.2 4.8 0.00 0.00 0.00 81 1021.0
20260507000259 13 275 11.3 14.5 0.00 0.00 0.00 80 1021.1
20260506235754 13 244 12.9 14.5 0.00 0.00 0.00 80 1021.3
20260506235250 14 267 6.4 9.7 0.00 0.00 0.00 79 1021.0
20260506234748 13 193 1.6 3.2 0.00 0.00 0.00 80 1021.2
20260506234245 14 191 6.4 11.3 0.00 0.00 0.00 79 1021.3
20260506233742 13 277 6.4 9.7 0.00 0.00 0.00 79 1021.0
20260506233238 14 249 8.0 9.7 0.00 0.00 0.00 78 1020.9
20260506232735 14 241 9.7 12.9 0.00 0.00 0.00 77 1021.1
20260506232230 14 187 6.4 8.0 0.00 0.00 0.00 78 1020.9
20260506231728 14 260 6.4 11.3 0.00 0.00 0.00 77 1021.1
20260506231226 14 219 11.3 14.5 0.00 0.00 0.00 78 1020.9
20260506230722 14 207 9.7 14.5 0.00 0.00 0.00 79 1021.0
20260506230219 15 188 16.1 17.7 0.00 0.00 0.00 77 1021.1
20260506225715 14 219 6.4 8.0 0.00 0.00 0.00 80 1021.1
20260506225213 15 239 9.7 12.9 0.00 0.00 0.00 78 1021.3
20260506224709 14 215 8.0 11.3 0.00 0.00 0.00 79 1021.0
20260506224206 13 213 11.3 14.5 0.00 0.00 0.00 79 1021.2
20260506223702 13 208 4.8 4.8 0.00 0.00 0.00 81 1021.4
20260506223158 13 261 4.8 8.0 0.00 0.00 0.00 80 1021.3
20260506222655 13 253 6.4 9.7 0.00 0.00 0.00 80 1021.2
20260506222151 13 286 8.0 9.7 0.00 0.00 0.00 80 1021.2
20260506221649 13 264 4.8 8.0 0.00 0.00 0.00 81 1021.4
20260506221147 13 272 6.4 8.0 0.00 0.00 0.00 81 1021.3
20260506220643 13 241 6.4 8.0 0.00 0.00 0.00 81 1021.5
20260506220138 13 212 4.8 8.0 0.00 0.00 0.00 81 1021.3
20260506215635 13 266 8.0 9.7 0.00 0.00 0.00 82 1021.3
20260506215131 13 206 3.2 4.8 0.00 0.00 0.00 82 1021.5
20260506214628 13 263 6.4 8.0 0.00 0.00 0.00 82 1021.5
20260506214126 13 198 4.8 4.8 0.00 0.00 0.00 83 1021.7
20260506213624 13 297 4.8 9.7 0.00 0.00 0.00 83 1021.6
20260506213120 13 229 4.8 4.8 0.00 0.00 0.00 83 1021.6
20260506212618 13 246 8.0 9.7 0.00 0.00 0.00 83 1021.8
20260506212112 13 274 8.0 11.3 0.00 0.00 0.00 82 1021.7
20260506211608 13 270 8.0 9.7 0.00 0.00 0.00 83 1021.8
20260506211106 13 262 11.3 12.9 0.00 0.00 0.00 83 1021.8
20260506210602 13 228 4.8 4.8 0.00 0.00 0.00 83 1021.8
20260506210059 13 173 0.0 1.6 0.00 0.00 0.00 82 1021.6
20260506205555 13 216 4.8 4.8 0.00 0.00 0.00 83 1021.5
20260506205050 13 244 8.0 9.7 0.00 0.00 0.00 82 1021.6
20260506204549 13 208 4.8 4.8 0.00 0.00 0.00 82 1021.8
20260506204045 13 263 6.4 9.7 0.00 0.00 0.00 83 1021.6
20260506203544 13 244 6.4 9.7 0.00 0.00 0.00 82 1021.6
20260506203040 13 237 4.8 4.8 0.00 0.00 0.00 82 1021.7
20260506202538 13 253 6.4 9.7 0.00 0.00 0.00 82 1021.6
20260506202034 13 225 3.2 4.8 0.00 0.00 0.00 83 1021.4
20260506201532 13 223 8.0 11.3 0.00 0.00 0.00 83 1021.6
20260506201028 13 238 4.8 8.0 0.00 0.00 0.00 83 1021.5
20260506200524 13 192 3.2 3.2 0.00 0.00 0.00 83 1021.6
20260506200021 13 217 4.8 4.8 0.00 0.00 0.00 84 1021.5
20260506195518 13 221 4.8 8.0 0.00 0.00 0.00 85 1021.3
20260506195014 13 233 8.0 9.7 0.00 0.00 0.00 85 1021.5
20260506194512 13 195 6.4 8.0 0.00 0.00 0.00 86 1021.5
20260506194008 12 212 6.4 9.7 0.00 0.00 0.00 87 1021.2
20260506193506 12 218 4.8 8.0 0.00 0.00 0.00 88 1021.5
20260506193003 12 254 6.4 8.0 0.00 0.00 0.00 87 1021.3
20260506192459 12 218 0.0 0.0 0.00 0.00 0.00 88 1021.2
20260506191955 12 273 6.4 8.0 0.00 0.00 0.00 88 1021.2
20260506191452 12 197 3.2 3.2 0.00 0.00 0.00 88 1021.3
20260506190948 12 187 1.6 1.6 0.00 0.00 0.00 89 1021.3
20260506190446 12 181 1.6 3.2 0.00 0.00 0.00 89 1021.3
20260506185942 12 221 3.2 3.2 0.00 0.00 0.00 89 1021.4
20260506185439 12 185 4.8 4.8 0.00 0.00 0.00 89 1021.5
20260506184936 12 232 3.2 3.2 0.00 0.00 0.00 89 1021.3
20260506184433 12 229 3.2 3.2 0.00 0.00 0.00 88 1021.4
20260506183931 12 194 3.2 3.2 0.00 0.00 0.00 89 1021.3
20260506183426 12 235 4.8 4.8 0.00 0.00 0.00 88 1021.4
20260506182923 13 173 1.6 1.6 0.00 0.00 0.00 88 1021.3
20260506182420 13 153 1.6 1.6 0.00 0.00 0.00 88 1021.0
20260506181918 12 151 4.8 8.0 0.00 0.00 0.00 87 1021.0
20260506181416 12 163 1.6 1.6 0.00 0.00 0.00 88 1020.8
20260506180912 12 205 8.0 9.7 0.00 0.00 0.00 88 1021.0
20260506180408 12 191 8.0 9.7 0.00 0.00 0.00 88 1021.1
20260506175905 12 163 0.0 1.6 0.00 0.00 0.00 89 1021.1
20260506175402 12 197 4.8 9.7 0.00 0.00 0.00 89 1021.2
20260506174859 12 147 4.8 9.7 0.00 0.00 0.00 89 1021.1
20260506174357 12 192 9.7 11.3 0.00 0.00 0.00 90 1021.0
20260506173854 12 213 4.8 4.8 0.00 0.00 0.00 89 1021.1
20260506173350 12 182 8.0 11.3 0.00 0.00 0.00 89 1021.2
20260506172847 12 212 4.8 4.8 0.00 0.00 0.00 90 1021.3
20260506172344 12 196 3.2 3.2 0.00 0.00 0.00 91 1021.3
20260506171841 12 203 6.4 9.7 0.00 0.00 0.00 91 1021.2
20260506171338 12 193 1.6 1.6 0.00 0.00 0.00 92 1021.3
20260506170836 12 248 6.4 8.0 0.00 0.00 0.00 92 1021.3
20260506170331 12 172 3.2 4.8 0.00 0.00 0.00 92 1021.1
20260506165826 12 194 3.2 3.2 0.00 0.00 0.00 91 1021.2
20260506165323 12 213 3.2 4.8 0.00 0.00 0.00 91 1020.9
20260506164819 12 206 3.2 3.2 0.00 0.00 0.00 91 1021.0
20260506164316 12 202 4.8 8.0 0.00 0.00 0.00 91 1020.9
20260506163813 12 189 4.8 8.0 0.00 0.00 0.00 91 1020.8
20260506163308 11 175 4.8 4.8 0.00 0.00 0.00 92 1020.7
20260506162804 11 177 8.0 9.7 0.00 0.00 0.00 92 1020.7
20260506162306 11 241 4.8 4.8 0.00 0.00 0.00 93 1020.6
20260506161759 11 193 1.6 1.6 0.00 0.00 0.00 94 1020.6
20260506161256 11 248 4.8 8.0 0.00 0.00 0.00 94 1020.6
20260506160754 11 193 1.6 1.6 0.00 0.00 0.00 95 1020.8
20260506160250 11 187 3.2 3.2 0.00 0.00 0.00 95 1021.0
20260506155749 11 191 1.6 3.2 0.00 0.00 0.00 95 1020.9
20260506155245 11 195 4.8 8.0 0.00 0.00 0.00 95 1021.1
20260506153358 11 212 4.8 4.8 0.00 0.00 0.00 94 1020.7
20260506152855 11 177 8.0 9.7 0.00 0.00 0.00 95 1020.5
20260506152352 11 191 1.6 3.2 0.00 0.00 0.00 95 1020.5
20260506151851 11 170 1.6 1.6 0.00 0.00 0.00 96 1020.8
20260506151347 11 177 3.2 3.2 0.00 0.00 0.00 96 1020.6
20260506150845 11 169 1.6 1.6 0.00 0.00 0.00 96 1020.7
20260506150341 11 168 1.6 1.6 0.00 0.00 0.00 96 1020.6
20260506145838 11 166 3.2 4.8 0.00 0.00 0.00 96 1020.6
20260506145334 11 189 4.8 8.0 0.00 0.00 0.00 96 1020.8
20260506144832 11 170 1.6 1.6 0.00 0.00 0.00 96 1020.9
20260506144328 11 171 1.6 1.6 0.00 0.00 0.00 96 1020.4
20260506143827 11 188 1.6 1.6 0.00 0.00 0.00 96 1020.4
20260506143323 11 145 4.8 4.8 0.00 0.00 0.00 96 1020.4
20260506142822 11 164 4.8 4.8 0.00 0.00 0.00 96 1020.4
20260506142319 11 177 4.8 4.8 0.00 0.00 0.00 96 1020.4
20260506141817 11 167 3.2 3.2 0.00 0.00 0.00 95 1020.5
20260506141315 11 170 1.6 1.6 0.00 0.00 0.00 95 1020.4
20260506140813 11 169 1.6 3.2 0.00 0.00 0.00 95 1020.6
20260506140309 11 189 4.8 4.8 0.00 0.00 0.00 95 1020.5
20260506135807 11 180 1.6 1.6 0.00 0.00 0.00 95 1020.5
20260506135305 11 190 1.6 3.2 0.00 0.00 0.00 95 1020.3
20260506134759 11 200 3.2 4.8 0.00 0.00 0.00 95 1020.6
20260506134256 11 211 6.4 8.0 0.00 0.00 0.00 95 1020.7
20260506133753 11 182 4.8 4.8 0.00 0.00 0.00 95 1020.5
20260506133250 11 152 6.4 8.0 0.00 0.00 0.00 95 1020.5
20260506132746 11 191 4.8 4.8 0.00 0.00 0.00 96 1020.3
20260506132244 11 219 4.8 4.8 0.00 0.00 0.00 96 1020.3
20260506131742 11 201 3.2 4.8 0.00 0.00 0.00 97 1019.9
20260506131237 11 195 3.2 3.2 0.00 0.00 0.00 97 1020.2
20260506130734 11 153 1.6 1.6 0.00 0.00 0.00 98 1020.1
20260506130231 11 143 1.6 8.0 0.00 0.00 0.00 98 1020.0
20260506125730 11 179 4.8 4.8 0.00 0.00 0.00 99 1019.9
20260506125227 11 155 1.6 1.6 0.00 0.00 0.00 99 1019.8
20260506124725 11 190 3.2 3.2 0.00 0.00 0.00 99 1019.8
20260506124223 11 193 1.6 3.2 0.00 0.00 0.00 99 1020.0
20260506123720 11 162 1.6 3.2 0.00 0.00 0.00 99 1019.6
20260506123219 11 155 1.6 3.2 0.00 0.00 0.00 99 1019.8
20260506122715 11 153 0.0 1.6 0.00 0.00 0.00 99 1019.7
20260506122212 11 173 3.2 3.2 0.00 0.00 0.00 99 1019.8
20260506121710 11 169 1.6 1.6 0.00 0.00 0.00 99 1019.8
20260506121206 11 159 1.6 1.6 0.00 0.00 0.00 99 1019.9
20260506120704 11 144 0.0 0.0 0.00 0.00 0.00 99 1019.7
20260506120202 11 144 0.0 1.6 0.00 0.00 0.00 99 1019.6
20260506115700 11 134 1.6 1.6 0.00 0.00 0.00 99 1019.6
20260506115158 11 154 1.6 3.2 0.00 0.00 0.00 99 1019.6
20260506114654 11 125 4.8 4.8 0.00 0.00 0.00 98 1019.4
20260506114152 11 132 3.2 3.2 0.00 0.00 0.00 98 1019.8
20260506113651 11 133 1.6 3.2 0.00 0.00 0.00 97 1019.5
20260506113148 11 153 1.6 1.6 0.00 0.00 0.00 97 1019.6
20260506112643 11 179 1.6 3.2 0.00 0.00 0.00 96 1019.7
20260506112142 11 188 3.2 3.2 0.00 0.00 0.00 96 1019.5
20260506111639 11 266 4.8 8.0 0.00 0.00 0.00 96 1019.5
20260506111136 11 149 3.2 3.2 0.00 0.00 0.00 95 1019.5
20260506110634 11 207 1.6 1.6 0.00 0.00 0.00 95 1019.3